Retour au catalogue

EXACTVIEW 9

LostScienceLEO
NORAD 40936·PAYLOAD·🇨🇦 Canada

Lancé Sep 28, 2015 depuis Satish Dhawan Space Centre

Loading…

Prochains Passages (prochaines 24 heures)

TLE

PériméSource: Space-Track

Époque: Jan 6, 2024, 01:52 UTC

1 40936U 15052G   24006.07845669  .00002815  00000-0  28083-3 0  9992
2 40936   6.0026  75.6655 0010627 288.6842  71.2132 14.79620840447389

Suivez EXACTVIEW 9 en temps réel avec AllMySat

Download on the App Store